QPF
0.12 0.15 0.20 0.18 0.18 0.18 0.16 0.16 0.19 0.17 0.17 0.17 0.17 0.16 0.16 0.15 0.13 0.10 0.07 0.05 0.03 0.02 0.02 0.01 0.01 0.01 0.01 0.01 0.02 0.02 0.02 0.02 0.02 0.02 0.02 0.01 0.01 0.01 0.01 0.01 0.01 0.01 0.01
0.08 0.10 0.15 0.16 0.18 0.19 0.18 0.16 0.16 0.14 0.12 0.13 0.13 0.13 0.11 0.10 0.10 0.09 0.07 0.04 0.02 0.01 0.01 0.02 0.01 0.01 0.01 0.01 0.01 0.01 0.02 0.02 0.01 0.01 0.01 0.01 0.02 0.02 0.01 0.00 0.00 0.01 0.01
0.06 0.07 0.08 0.10 0.17 0.20 0.16 0.15 0.14 0.14 0.13 0.11 0.10 0.10 0.11 0.11 0.08 0.07 0.06 0.04 0.02 0.01 0.01 0.01 0.01 0.01 0.00 0.01 0.01 0.01 0.01 0.01 0.01 0.01 0.01 0.01 0.02 0.03 0.02 0.01 0.00 0.00 0.01
0.04 0.06 0.06 0.07 0.12 0.17 0.16 0.16 0.13 0.15 0.13 0.11 0.11 0.09 0.07 0.07 0.06 0.04 0.03 0.02 0.02 0.01 0.00 0.00 0.00 0.00 0.00 0.01 0.01 0.01 0.01 0.01 0.02 0.01 0.01 0.01 0.01 0.02 0.02 0.01 0.01 0.00 0.00
0.02 0.05 0.06 0.06 0.09 0.15 0.16 0.14 0.11 0.12 0.11 0.11 0.11 0.09 0.06 0.04 0.03 0.03 0.03 0.02 0.02 0.01 0.00 0.00 0.00 0.01 0.01 0.01 0.01 0.02 0.02 0.01 0.01 0.01 0.01 0.01 0.01 0.01 0.01 0.02 0.02 0.01 0.00
0.02 0.04 0.06 0.08 0.09 0.10 0.12 0.13 0.11 0.09 0.08 0.08 0.07 0.07 0.05 0.04 0.04 0.03 0.03 0.02 0.01 0.01 0.00 0.00 0.01 0.01 0.01 0.02 0.02 0.02 0.02 0.01 0.01 0.01 0.00 0.00 0.01 0.01 0.01 0.01 0.01 0.01 0.00
0.01 0.03 0.04 0.05 0.05 0.05 0.07 0.13 0.10 0.06 0.05 0.05 0.05 0.05 0.05 0.04 0.03 0.02 0.02 0.01 0.01 0.01 0.01 0.01 0.01 0.01 0.01 0.01 0.01 0.02 0.02 0.01 0.01 0.01 0.00 0.00 0.00 0.00 0.00 0.00 0.00 0.00 0.00
0.01 0.01 0.02 0.02 0.03 0.04 0.04 0.07 0.10 0.06 0.04 0.04 0.04 0.04 0.03 0.02 0.02 0.02 0.02 0.01 0.01 0.01 0.00 0.01 0.01 0.01 0.01 0.01 0.01 0.01 0.01 0.01 0.01 0.01 0.00 0.00 0.00 0.00 0.00 0.00 0.00 0.00 0.00
0.00 0.00 0.01 0.01 0.02 0.02 0.03 0.03 0.05 0.06 0.04 0.04 0.04 0.03 0.02 0.02 0.02 0.02 0.01 0.01 0.01 0.01 0.01 0.01 0.01 0.01 0.01 0.01 0.01 0.01 0.00 0.00 0.01 0.01 0.00 0.00 0.00 0.00 0.00 0.00 0.00 0.00 0.00
0.00 0.00 0.00 0.01 0.01 0.01 0.03 0.05 0.05 0.04 0.03 0.03 0.02 0.02 0.02 0.02 0.02 0.01 0.01 0.01 0.01 0.01 0.01 0.01 0.01 0.01 0.00 0.00 0.00 0.01 0.00 0.00 0.01 0.01 0.00 0.00 0.00 0.00 0.00 0.00 0.00 0.00 0.00
0.00 0.00 0.00 0.01 0.01 0.01 0.02 0.03 0.04 0.04 0.03 0.03 0.02 0.02 0.02 0.02 0.02 0.01 0.01 0.02 0.02 0.02 0.02 0.01 0.01 0.01 0.00 0.00 0.00 0.00 0.01 0.01 0.01 0.01 0.00 0.00 0.00 0.01 0.00 0.00 0.00 0.00 0.00
0.00 0.00 0.00 0.00 0.01 0.00 0.00 0.01 0.02 0.03 0.03 0.03 0.02 0.01 0.01 0.01 0.01 0.01 0.01 0.02 0.02 0.02 0.02 0.01 0.01 0.00 0.00 0.00 0.00 0.00 0.00 0.00 0.00 0.00 0.00 0.01 0.01 0.01 0.01 0.01 0.01 0.01 0.01
0.00 0.00 0.00 0.00 0.00 0.00 0.00 0.00 0.01 0.02 0.03 0.04 0.02 0.01 0.01 0.01 0.01 0.01 0.01 0.01 0.01 0.01 0.01 0.00 0.00 0.00 0.00 0.00 0.00 0.00 0.00 0.00 0.00 0.00 0.00 0.00 0.00 0.01 0.02 0.02 0.01 0.01 0.01
0.00 0.00 0.00 0.00 0.00 0.00 0.00 0.00 0.00 0.01 0.02 0.03 0.02 0.01 0.01 0.01 0.01 0.01 0.01 0.01 0.00 0.00 0.00 0.00 0.00 0.00 0.00 0.00 0.00 0.00 0.00 0.00 0.00 0.00 0.00 0.00 0.00 0.01 0.01 0.02 0.02 0.01 0.01
0.00 0.00 0.00 0.01 0.01 0.01 0.00 0.00 0.00 0.01 0.01 0.02 0.01 0.01 0.01 0.02 0.02 0.02 0.02 0.01 0.01 0.01 0.00 0.00 0.00 0.00 0.00 0.00 0.00 0.00 0.00 0.00 0.00 0.00 0.00 0.00 0.00 0.00 0.01 0.01 0.01 0.01 0.01
0.00 0.00 0.00 0.01 0.01 0.01 0.01 0.01 0.01 0.00 0.01 0.01 0.01 0.01 0.01 0.03 0.02 0.02 0.02 0.03 0.02 0.02 0.01 0.00 0.00 0.00 0.00 0.00 0.01 0.00 0.00 0.00 0.01 0.01 0.01 0.01 0.00 0.00 0.00 0.00 0.00 0.00 0.00
0.00 0.00 0.00 0.00 0.01 0.02 0.02 0.01 0.01 0.01 0.00 0.00 0.00 0.01 0.02 0.03 0.04 0.04 0.05 0.05 0.04 0.04 0.03 0.02 0.01 0.01 0.01 0.01 0.01 0.00 0.00 0.00 0.00 0.01 0.01 0.01 0.00 0.01 0.01 0.01 0.01 0.00 0.00
0.00 0.00 0.00 0.00 0.01 0.01 0.02 0.02 0.01 0.01 0.01 0.01 0.01 0.01 0.02 0.03 0.05 0.06 0.06 0.06 0.06 0.06 0.05 0.04 0.03 0.03 0.02 0.03 0.02 0.01 0.00 0.00 0.00 0.01 0.02 0.02 0.02 0.02 0.03 0.02 0.02 0.01 0.01
0.00 0.01 0.01 0.01 0.02 0.02 0.03 0.04 0.05 0.06 0.06 0.03 0.03 0.03 0.03 0.05 0.06 0.07 0.08 0.08 0.08 0.08 0.07 0.07 0.06 0.06 0.07 0.08 0.03 0.01 0.00 0.00 0.00 0.01 0.02 0.03 0.03 0.03 0.02 0.02 0.01 0.01 0.01
0.01 0.01 0.01 0.02 0.03 0.03 0.03 0.04 0.06 0.11 0.17 0.15 0.09 0.07 0.07 0.08 0.09 0.09 0.10 0.10 0.12 0.13 0.12 0.10 0.08 0.07 0.07 0.08 0.04 0.02 0.01 0.01 0.02 0.02 0.02 0.01 0.01 0.01 0.01 0.02 0.03 0.02 0.01
0.01 0.01 0.01 0.01 0.02 0.03 0.04 0.06 0.08 0.10 0.14 0.18 0.18 0.18 0.16 0.12 0.10 0.10 0.11 0.11 0.11 0.11 0.09 0.07 0.05 0.05 0.05 0.07 0.05 0.04 0.02 0.03 0.02 0.01 0.01 0.01 0.01 0.01 0.01 0.01 0.02 0.02 0.02
0.00 0.01 0.01 0.01 0.02 0.04 0.06 0.09 0.12 0.13 0.14 0.19 0.25 0.28 0.26 0.18 0.11 0.10 0.09 0.09 0.10 0.10 0.07 0.06 0.06 0.06 0.06 0.06 0.05 0.04 0.02 0.02 0.02 0.01 0.01 0.01 0.01 0.01 0.01 0.00 0.00 0.00 0.00
0.01 0.01 0.02 0.02 0.02 0.03 0.05 0.10 0.11 0.12 0.12 0.14 0.20 0.24 0.23 0.17 0.10 0.08 0.07 0.07 0.06 0.07 0.06 0.06 0.07 0.06 0.06 0.06 0.04 0.03 0.02 0.02 0.02 0.01 0.01 0.01 0.01 0.00 0.00 0.00 0.00 0.00 0.00
0.01 0.01 0.01 0.02 0.02 0.02 0.03 0.05 0.08 0.09 0.09 0.09 0.10 0.11 0.14 0.14 0.12 0.09 0.07 0.08 0.08 0.07 0.07 0.06 0.05 0.04 0.04 0.04 0.03 0.02 0.02 0.02 0.01 0.01 0.01 0.01 0.00 0.00 0.00 0.00 0.00 0.00 0.00
0.01 0.01 0.01 0.01 0.02 0.02 0.02 0.04 0.06 0.08 0.10 0.11 0.11 0.12 0.12 0.13 0.12 0.11 0.07 0.06 0.05 0.04 0.04 0.03 0.03 0.02 0.03 0.03 0.03 0.03 0.02 0.02 0.02 0.01 0.01 0.01 0.01 0.01 0.01 0.02 0.02 0.03 0.03
0.01 0.01 0.01 0.01 0.01 0.02 0.02 0.03 0.05 0.06 0.07 0.08 0.09 0.11 0.12 0.12 0.13 0.10 0.07 0.05 0.03 0.02 0.02 0.01 0.01 0.01 0.01 0.02 0.02 0.01 0.01 0.01 0.00 0.00 0.00 0.01 0.01 0.03 0.03 0.05 0.05 0.06 0.07
MSLP
1008.94 1009.58 1010.08 1010.42 1010.65 1010.83 1011.02 1011.27 1011.64 1012.10 1012.66 1013.24 1013.82 1014.32 1014.73 1015.02 1015.22 1015.35 1015.46 1015.58 1015.73 1015.94 1016.19 1016.47 1016.75 1017.02 1017.27 1017.47 1017.65 1017.80 1017.94 1018.06 1018.17 1018.27 1018.35 1018.39 1018.40 1018.35 1018.28 1018.19 1018.09 1018.02 1017.98
1008.93 1009.73 1010.35 1010.79 1011.06 1011.23 1011.38 1011.59 1011.90 1012.34 1012.88 1013.47 1014.05 1014.58 1014.99 1015.27 1015.44 1015.52 1015.58 1015.64 1015.76 1015.95 1016.21 1016.51 1016.84 1017.16 1017.45 1017.69 1017.88 1018.04 1018.17 1018.29 1018.41 1018.52 1018.62 1018.69 1018.72 1018.69 1018.62 1018.51 1018.36 1018.22 1018.10
1008.88 1009.80 1010.53 1011.04 1011.35 1011.53 1011.66 1011.83 1012.11 1012.52 1013.04 1013.64 1014.24 1014.77 1015.19 1015.47 1015.62 1015.67 1015.69 1015.72 1015.82 1015.99 1016.26 1016.59 1016.95 1017.30 1017.62 1017.89 1018.09 1018.26 1018.39 1018.51 1018.63 1018.76 1018.88 1018.99 1019.05 1019.06 1019.00 1018.89 1018.71 1018.52 1018.32
1008.78 1009.78 1010.58 1011.15 1011.49 1011.68 1011.80 1011.95 1012.21 1012.60 1013.12 1013.72 1014.33 1014.88 1015.31 1015.60 1015.75 1015.79 1015.80 1015.82 1015.90 1016.07 1016.33 1016.67 1017.05 1017.42 1017.76 1018.04 1018.25 1018.41 1018.55 1018.68 1018.81 1018.96 1019.12 1019.26 1019.37 1019.42 1019.39 1019.28 1019.09 1018.86 1018.60
1008.61 1009.64 1010.48 1011.09 1011.46 1011.67 1011.80 1011.95 1012.20 1012.58 1013.09 1013.69 1014.31 1014.87 1015.33 1015.64 1015.80 1015.87 1015.88 1015.90 1015.98 1016.15 1016.41 1016.76 1017.13 1017.51 1017.84 1018.12 1018.34 1018.50 1018.64 1018.78 1018.93 1019.10 1019.29 1019.47 1019.62 1019.71 1019.71 1019.62 1019.44 1019.19 1018.89
1008.37 1009.39 1010.25 1010.88 1011.29 1011.53 1011.68 1011.84 1012.09 1012.47 1012.97 1013.57 1014.19 1014.78 1015.25 1015.59 1015.79 1015.89 1015.92 1015.97 1016.06 1016.23 1016.49 1016.82 1017.18 1017.55 1017.87 1018.14 1018.34 1018.51 1018.65 1018.79 1018.96 1019.16 1019.38 1019.59 1019.78 1019.90 1019.93 1019.86 1019.69 1019.44 1019.13
1008.05 1009.04 1009.90 1010.56 1011.00 1011.28 1011.47 1011.66 1011.92 1012.31 1012.81 1013.40 1014.02 1014.60 1015.10 1015.47 1015.71 1015.84 1015.92 1016.00 1016.11 1016.30 1016.55 1016.87 1017.21 1017.54 1017.84 1018.09 1018.28 1018.43 1018.57 1018.72 1018.90 1019.11 1019.35 1019.59 1019.79 1019.94 1019.99 1019.95 1019.80 1019.56 1019.26
1007.66 1008.62 1009.48 1010.16 1010.66 1010.99 1011.24 1011.47 1011.76 1012.15 1012.64 1013.21 1013.82 1014.39 1014.89 1015.28 1015.56 1015.74 1015.87 1015.99 1016.14 1016.34 1016.59 1016.89 1017.21 1017.51 1017.78 1017.99 1018.16 1018.30 1018.44 1018.59 1018.76 1018.98 1019.22 1019.46 1019.67 1019.83 1019.90 1019.88 1019.76 1019.54 1019.26
1007.23 1008.17 1009.03 1009.74 1010.29 1010.70 1011.00 1011.28 1011.61 1012.00 1012.48 1013.03 1013.60 1014.16 1014.65 1015.05 1015.35 1015.58 1015.76 1015.93 1016.12 1016.34 1016.61 1016.90 1017.18 1017.46 1017.69 1017.88 1018.02 1018.14 1018.26 1018.40 1018.57 1018.77 1019.00 1019.23 1019.43 1019.59 1019.67 1019.66 1019.57 1019.39 1019.15
1006.79 1007.71 1008.57 1009.31 1009.91 1010.38 1010.76 1011.10 1011.46 1011.87 1012.34 1012.85 1013.39 1013.91 1014.38 1014.77 1015.10 1015.36 1015.59 1015.82 1016.05 1016.30 1016.58 1016.87 1017.15 1017.39 1017.59 1017.75 1017.86 1017.96 1018.06 1018.18 1018.33 1018.52 1018.72 1018.93 1019.11 1019.26 1019.34 1019.34 1019.28 1019.15 1018.96
1006.36 1007.25 1008.10 1008.86 1009.51 1010.03 1010.47 1010.87 1011.26 1011.68 1012.15 1012.64 1013.13 1013.61 1014.05 1014.44 1014.78 1015.08 1015.36 1015.63 1015.91 1016.21 1016.51 1016.80 1017.07 1017.30 1017.48 1017.61 1017.70 1017.78 1017.86 1017.96 1018.08 1018.23 1018.41 1018.59 1018.74 1018.87 1018.95 1018.97 1018.93 1018.84 1018.72
1005.97 1006.80 1007.62 1008.37 1009.02 1009.58 1010.07 1010.51 1010.94 1011.38 1011.84 1012.32 1012.79 1013.24 1013.66 1014.04 1014.39 1014.72 1015.04 1015.36 1015.70 1016.04 1016.37 1016.68 1016.95 1017.17 1017.34 1017.45 1017.53 1017.58 1017.64 1017.72 1017.82 1017.94 1018.08 1018.23 1018.36 1018.47 1018.54 1018.57 1018.57 1018.53 1018.46
1005.61 1006.36 1007.11 1007.80 1008.42 1008.98 1009.48 1009.96 1010.42 1010.90 1011.37 1011.85 1012.31 1012.75 1013.16 1013.55 1013.92 1014.28 1014.64 1015.01 1015.40 1015.78 1016.14 1016.47 1016.76 1016.98 1017.14 1017.24 1017.30 1017.35 1017.39 1017.45 1017.53 1017.63 1017.75 1017.86 1017.97 1018.07 1018.13 1018.18 1018.20 1018.20 1018.18
1005.30 1005.94 1006.57 1007.15 1007.70 1008.21 1008.70 1009.19 1009.69 1010.20 1010.71 1011.21 1011.69 1012.15 1012.57 1012.97 1013.37 1013.76 1014.16 1014.57 1015.00 1015.42 1015.82 1016.17 1016.47 1016.69 1016.85 1016.96 1017.02 1017.06 1017.09 1017.14 1017.21 1017.29 1017.39 1017.49 1017.58 1017.66 1017.72 1017.77 1017.81 1017.84 1017.87
1005.06 1005.55 1006.01 1006.45 1006.88 1007.31 1007.77 1008.25 1008.78 1009.32 1009.88 1010.43 1010.95 1011.45 1011.91 1012.34 1012.76 1013.18 1013.62 1014.06 1014.52 1014.96 1015.38 1015.76 1016.06 1016.30 1016.47 1016.58 1016.65 1016.69 1016.73 1016.78 1016.84 1016.92 1017.00 1017.09 1017.16 1017.23 1017.28 1017.33 1017.38 1017.42 1017.47
1004.92 1005.23 1005.51 1005.78 1006.06 1006.38 1006.78 1007.24 1007.78 1008.37 1008.98 1009.59 1010.18 1010.72 1011.23 1011.70 1012.15 1012.59 1013.05 1013.51 1013.97 1014.43 1014.86 1015.24 1015.56 1015.81 1015.99 1016.11 1016.19 1016.25 1016.30 1016.35 1016.42 1016.50 1016.58 1016.65 1016.71 1016.76 1016.79 1016.83 1016.86 1016.91 1016.96
1004.91 1005.04 1005.14 1005.22 1005.35 1005.56 1005.88 1006.32 1006.86 1007.49 1008.16 1008.83 1009.47 1010.08 1010.62 1011.12 1011.59 1012.04 1012.49 1012.95 1013.41 1013.86 1014.28 1014.66 1014.99 1015.24 1015.44 1015.58 1015.68 1015.75 1015.82 1015.89 1015.96 1016.04 1016.11 1016.17 1016.21 1016.23 1016.25 1016.25 1016.26 1016.28 1016.31
1005.05 1005.05 1004.98 1004.91 1004.89 1004.99 1005.24 1005.65 1006.20 1006.84 1007.55 1008.27 1008.96 1009.60 1010.17 1010.68 1011.14 1011.58 1012.00 1012.43 1012.85 1013.28 1013.69 1014.06 1014.38 1014.65 1014.86 1015.02 1015.15 1015.24 1015.33 1015.41 1015.49 1015.56 1015.62 1015.66 1015.68 1015.67 1015.64 1015.60 1015.56 1015.53 1015.53
1005.37 1005.27 1005.09 1004.90 1004.79 1004.81 1005.00 1005.37 1005.90 1006.55 1007.28 1008.01 1008.72 1009.36 1009.92 1010.41 1010.83 1011.22 1011.60 1011.97 1012.35 1012.74 1013.12 1013.48 1013.80 1014.08 1014.31 1014.49 1014.64 1014.76 1014.86 1014.96 1015.03 1015.09 1015.13 1015.15 1015.12 1015.07 1014.99 1014.90 1014.80 1014.72 1014.66
1005.84 1005.70 1005.47 1005.23 1005.07 1005.04 1005.19 1005.53 1006.04 1006.67 1007.38 1008.09 1008.76 1009.36 1009.88 1010.31 1010.67 1010.99 1011.29 1011.60 1011.92 1012.26 1012.61 1012.96 1013.28 1013.57 1013.83 1014.04 1014.21 1014.35 1014.47 1014.55 1014.62 1014.66 1014.66 1014.64 1014.57 1014.47 1014.33 1014.18 1014.03 1013.88 1013.76
1006.41 1006.30 1006.09 1005.86 1005.69 1005.65 1005.78 1006.09 1006.57 1007.16 1007.80 1008.46 1009.06 1009.59 1010.01 1010.35 1010.62 1010.85 1011.07 1011.30 1011.57 1011.86 1012.18 1012.52 1012.85 1013.16 1013.44 1013.68 1013.88 1014.03 1014.14 1014.22 1014.26 1014.26 1014.22 1014.15 1014.03 1013.87 1013.68 1013.47 1013.26 1013.07 1012.89
1007.04 1007.01 1006.86 1006.69 1006.56 1006.54 1006.66 1006.95 1007.38 1007.90 1008.47 1009.02 1009.52 1009.93 1010.25 1010.48 1010.64 1010.78 1010.91 1011.07 1011.28 1011.54 1011.84 1012.17 1012.52 1012.85 1013.16 1013.42 1013.63 1013.78 1013.89 1013.94 1013.94 1013.89 1013.80 1013.66 1013.49 1013.28 1013.04 1012.79 1012.54 1012.30 1012.08
1007.67 1007.74 1007.69 1007.60 1007.54 1007.56 1007.69 1007.96 1008.33 1008.76 1009.22 1009.66 1010.03 1010.32 1010.51 1010.62 1010.68 1010.72 1010.78 1010.88 1011.05 1011.28 1011.58 1011.92 1012.28 1012.63 1012.96 1013.23 1013.45 1013.59 1013.67 1013.68 1013.63 1013.53 1013.37 1013.17 1012.94 1012.68 1012.40 1012.12 1011.84 1011.58 1011.34
1008.26 1008.43 1008.49 1008.50 1008.51 1008.57 1008.72 1008.95 1009.26 1009.60 1009.95 1010.25 1010.49 1010.64 1010.72 1010.72 1010.69 1010.66 1010.66 1010.73 1010.87 1011.09 1011.39 1011.74 1012.11 1012.48 1012.81 1013.09 1013.29 1013.41 1013.45 1013.41 1013.30 1013.12 1012.90 1012.64 1012.35 1012.04 1011.74 1011.43 1011.15 1010.88 1010.64
1008.81 1009.06 1009.21 1009.29 1009.37 1009.47 1009.62 1009.82 1010.05 1010.30 1010.53 1010.72 1010.83 1010.87 1010.84 1010.77 1010.67 1010.59 1010.56 1010.60 1010.73 1010.95 1011.25 1011.60 1011.98 1012.34 1012.67 1012.93 1013.11 1013.20 1013.18 1013.08 1012.90 1012.66 1012.36 1012.04 1011.70 1011.36 1011.03 1010.72 1010.43 1010.17 1009.94
1009.33 1009.62 1009.82 1009.96 1010.08 1010.20 1010.33 1010.49 1010.66 1010.82 1010.95 1011.02 1011.03 1010.98 1010.88 1010.75 1010.61 1010.51 1010.47 1010.50 1010.63 1010.85 1011.14 1011.48 1011.85 1012.20 1012.50 1012.73 1012.86 1012.90 1012.83 1012.67 1012.42 1012.11 1011.76 1011.38 1011.00 1010.62 1010.27 1009.95 1009.66 1009.41 1009.19
Thickness
5759 5757 5756 5756 5756 5754 5753 5753 5751 5751 5751 5749 5747 5745 5745 5747 5747 5747 5746 5745 5744 5743 5742 5741 5739 5738 5736 5733 5732 5730 5730 5730 5730 5728 5728 5732 5736 5735 5733 5732 5731 5730 5729
5756 5754 5751 5754 5754 5751 5751 5751 5749 5748 5748 5747 5747 5747 5747 5747 5747 5746 5745 5744 5743 5742 5742 5739 5738 5737 5735 5732 5731 5729 5727 5728 5729 5724 5721 5721 5724 5728 5732 5729 5727 5727 5726
5757 5754 5753 5753 5753 5751 5751 5751 5748 5747 5747 5748 5748 5747 5745 5745 5744 5743 5743 5743 5742 5741 5741 5739 5738 5736 5735 5732 5730 5728 5726 5723 5725 5726 5720 5713 5709 5716 5723 5725 5724 5723 5722
5763 5758 5755 5752 5751 5751 5752 5750 5748 5747 5747 5747 5746 5744 5742 5741 5743 5743 5743 5742 5742 5741 5741 5739 5738 5736 5735 5732 5730 5728 5727 5723 5720 5722 5722 5719 5715 5708 5709 5715 5719 5720 5719
5769 5762 5759 5755 5754 5754 5752 5750 5748 5746 5746 5747 5746 5745 5744 5745 5746 5745 5742 5741 5741 5741 5741 5739 5737 5735 5733 5731 5729 5727 5725 5723 5719 5718 5718 5717 5716 5714 5706 5704 5708 5713 5716
5773 5767 5764 5759 5756 5755 5752 5749 5746 5745 5746 5747 5747 5745 5745 5746 5744 5742 5739 5739 5740 5741 5740 5738 5736 5734 5732 5730 5728 5726 5723 5721 5719 5716 5716 5713 5711 5708 5706 5702 5703 5704 5709
5775 5768 5763 5759 5756 5754 5752 5750 5746 5745 5746 5747 5746 5746 5746 5746 5744 5742 5740 5740 5741 5740 5739 5739 5735 5733 5731 5729 5727 5724 5721 5720 5717 5714 5713 5712 5711 5710 5707 5702 5700 5700 5704
5779 5773 5768 5764 5760 5757 5754 5751 5748 5746 5747 5747 5746 5746 5746 5746 5745 5744 5744 5742 5743 5742 5739 5737 5734 5732 5730 5728 5725 5723 5720 5718 5715 5713 5711 5709 5709 5709 5706 5701 5696 5692 5695
5783 5778 5773 5769 5764 5761 5758 5755 5750 5748 5747 5747 5745 5745 5745 5745 5745 5744 5744 5744 5743 5742 5739 5736 5733 5730 5728 5726 5723 5720 5718 5716 5713 5711 5709 5707 5706 5706 5704 5701 5697 5690 5684
5786 5781 5777 5773 5770 5766 5762 5758 5754 5750 5749 5747 5746 5745 5745 5745 5745 5744 5742 5742 5741 5740 5736 5734 5731 5728 5726 5723 5720 5718 5716 5713 5711 5709 5706 5704 5703 5702 5701 5698 5696 5692 5686
5789 5784 5780 5777 5773 5769 5764 5760 5756 5752 5750 5749 5747 5747 5745 5745 5744 5743 5742 5740 5739 5736 5734 5731 5728 5725 5723 5720 5717 5715 5713 5710 5708 5706 5704 5701 5700 5697 5695 5694 5692 5689 5686
5794 5789 5784 5780 5775 5771 5767 5762 5758 5754 5752 5751 5749 5747 5745 5744 5742 5741 5741 5739 5736 5734 5731 5729 5726 5723 5721 5718 5715 5711 5711 5708 5705 5703 5701 5698 5697 5694 5691 5689 5686 5684 5683
5796 5791 5786 5781 5777 5773 5770 5766 5762 5758 5756 5753 5750 5747 5745 5743 5741 5740 5739 5737 5734 5731 5728 5726 5722 5720 5718 5716 5713 5709 5707 5705 5703 5701 5698 5695 5692 5689 5687 5685 5682 5681 5680
5794 5790 5785 5781 5779 5776 5773 5769 5765 5763 5759 5755 5751 5748 5746 5744 5742 5740 5738 5735 5732 5728 5725 5723 5720 5717 5715 5712 5710 5707 5704 5702 5700 5698 5695 5693 5690 5687 5684 5681 5679 5677 5673
5791 5789 5786 5782 5780 5777 5774 5772 5768 5766 5763 5757 5753 5750 5748 5745 5742 5739 5736 5733 5729 5726 5723 5720 5716 5714 5711 5709 5707 5703 5701 5698 5695 5694 5692 5690 5688 5686 5682 5679 5675 5672 5668
5788 5788 5786 5783 5779 5777 5774 5772 5770 5767 5764 5759 5755 5752 5747 5743 5740 5737 5733 5730 5726 5723 5719 5716 5713 5710 5709 5707 5703 5700 5697 5694 5691 5689 5687 5686 5683 5682 5679 5676 5672 5668 5663
5785 5785 5783 5781 5780 5778 5775 5771 5769 5767 5763 5757 5754 5750 5746 5741 5737 5734 5730 5726 5721 5718 5714 5711 5708 5705 5703 5700 5697 5693 5690 5688 5686 5684 5682 5681 5682 5678 5675 5672 5668 5664 5660
5780 5780 5781 5780 5780 5779 5775 5772 5769 5764 5759 5754 5750 5747 5743 5738 5734 5729 5725 5721 5717 5713 5709 5706 5703 5700 5697 5692 5689 5686 5683 5681 5680 5679 5677 5675 5673 5672 5669 5667 5664 5661 5659
5776 5776 5777 5777 5776 5775 5773 5770 5765 5759 5753 5749 5745 5742 5738 5732 5728 5723 5719 5715 5711 5707 5703 5700 5697 5693 5690 5686 5681 5677 5676 5674 5673 5673 5672 5670 5668 5667 5663 5659 5657 5656 5655
5770 5769 5770 5769 5767 5767 5767 5761 5756 5751 5745 5741 5738 5735 5731 5725 5720 5715 5711 5708 5704 5699 5696 5693 5690 5688 5685 5681 5676 5670 5669 5667 5666 5666 5666 5664 5662 5661 5657 5653 5651 5648 5648
5760 5760 5758 5755 5754 5754 5752 5747 5742 5738 5736 5733 5729 5724 5721 5716 5711 5707 5704 5700 5695 5691 5688 5685 5683 5682 5679 5676 5670 5665 5662 5660 5658 5657 5657 5657 5655 5651 5648 5644 5643 5642 5640
5747 5747 5744 5741 5741 5740 5737 5732 5727 5726 5724 5721 5716 5711 5707 5703 5700 5696 5692 5688 5684 5680 5678 5676 5674 5673 5671 5668 5664 5658 5654 5651 5649 5648 5648 5647 5644 5640 5637 5635 5634 5632 5629
5733 5733 5730 5727 5725 5723 5721 5715 5712 5712 5709 5706 5701 5698 5694 5690 5687 5685 5681 5677 5673 5670 5668 5666 5663 5661 5661 5658 5654 5649 5645 5640 5637 5639 5638 5634 5631 5628 5628 5627 5625 5622 5619
5717 5716 5714 5710 5707 5706 5705 5702 5699 5698 5695 5690 5686 5683 5680 5677 5675 5673 5670 5666 5663 5660 5658 5656 5654 5652 5649 5646 5642 5638 5633 5629 5626 5625 5625 5623 5621 5619 5618 5618 5617 5615 5613
5701 5699 5696 5693 5691 5690 5688 5687 5685 5683 5680 5676 5673 5670 5667 5665 5663 5661 5659 5656 5652 5651 5648 5646 5644 5640 5637 5633 5629 5625 5622 5618 5614 5610 5610 5610 5610 5610 5610 5610 5610 5609 5607
5688 5685 5682 5679 5677 5675 5673 5671 5671 5669 5666 5663 5661 5659 5657 5654 5653 5650 5648 5646 5644 5641 5638 5635 5632 5630 5626 5622 5617 5613 5608 5603 5598 5594 5597 5597 5597 5597 5598 5598 5598 5597 5596